Terminal Aerodrome Forecast
Issued by NWS

Home | Current Version | Previous Version | Text Only | Print | Product List | Glossary On
Versions: 1 2 3 4 5 6 7 8 9 10 11 12 13 14 15 16 17 18 19 20 21 22 23 24 25 26 27 28 29 30 31 32 33 34
000
FTAK31 PAFA 202338
TAFASC
TAF
PASC 202338Z 2100/2124 05007KT P6SM SCT025 BKN035
      TEMPO 2101/2105 BKN025
     FM210500 07008KT P6SM OVC020
     FM211000 06006KT 1SM BR OVC005=

USA.gov is the U.S. government's official web portal to all federal, state and local government web resources and services.